GEFSMA_con_probscp_072.txt.gz
Probability
17 13 9 5 2 1 1 1 1 2 3 4 4 3 3 3 1 1 1 0 1 2 2 4 6 5 5 6 10 11 9 6 6 6 3 1 0 0 0 0 0 0 0
19 13 8 6 4 3 2 1 1 2 2 2 2 3 3 3 2 3 2 1 1 2 3 5 6 6 6 8 10 11 10 9 9 7 4 2 1 0 0 0 0 0 0
19 14 9 8 7 4 2 1 1 2 3 1 1 2 2 2 2 3 3 3 1 1 2 5 7 8 10 12 12 12 12 10 9 9 7 5 4 1 0 0 0 0 0
20 17 11 9 8 5 3 2 2 2 2 1 1 1 1 0 1 2 3 3 3 1 1 3 6 10 14 15 15 14 13 11 10 11 11 9 7 4 1 0 0 0 0
19 17 12 8 6 5 3 3 2 1 1 0 0 0 0 0 0 1 1 2 3 2 2 2 4 8 12 14 14 13 13 13 13 13 14 14 13 9 4 1 0 0 0
16 15 11 7 5 4 3 3 2 0 0 0 0 0 0 0 0 0 0 0 1 1 1 2 2 5 8 9 10 10 13 17 16 14 16 18 18 15 10 4 2 1 0
15 13 10 6 4 3 2 2 1 0 0 0 0 0 0 0 0 0 0 0 0 0 0 1 2 3 4 5 6 8 13 18 20 18 18 20 19 17 13 9 6 4 2
13 11 7 4 1 1 1 1 0 0 0 0 0 0 0 0 0 0 0 0 0 0 0 0 1 1 2 3 3 6 10 15 20 22 21 21 18 14 12 12 12 9 6
8 7 4 2 0 0 0 0 0 0 0 0 0 0 0 0 0 0 0 0 0 0 0 0 0 0 0 1 1 2 4 8 13 18 21 22 18 14 13 14 15 14 12
2 2 1 0 0 0 0 0 0 0 0 0 1 1 1 0 0 0 0 0 0 0 0 0 0 0 0 0 0 0 1 2 6 11 18 21 20 18 16 15 16 18 19
0 0 0 0 0 0 0 0 0 0 0 1 2 2 2 1 1 1 0 0 0 0 0 0 0 0 0 0 0 0 0 0 2 6 13 17 18 18 16 15 18 22 24
0 0 0 0 0 0 0 0 0 0 0 1 2 3 3 3 2 2 1 0 0 0 0 0 0 0 0 0 0 0 0 0 1 3 7 10 12 12 11 13 19 22 23
0 0 0 0 0 0 0 0 0 1 1 0 1 2 3 3 3 3 2 1 0 0 0 0 0 0 0 0 0 0 0 0 0 1 2 4 4 4 5 9 13 16 16
0 0 0 0 0 0 0 0 0 1 1 1 1 1 2 3 3 3 3 2 1 0 0 0 0 0 0 0 0 0 0 0 0 0 0 1 1 0 1 4 6 7 7
0 0 0 0 0 0 0 0 0 0 1 2 2 2 1 1 3 3 3 3 2 1 0 0 0 0 0 0 0 0 0 0 0 0 0 0 0 0 0 1 2 1 1
0 0 0 0 0 0 0 0 0 0 0 1 2 2 1 1 2 3 3 3 3 2 1 0 0 0 0 0 0 0 0 0 0 0 0 0 0 0 0 0 0 0 0
0 0 0 0 0 0 0 0 0 0 0 0 1 1 0 0 1 2 3 3 3 3 1 0 0 0 0 0 0 0 0 0 0 0 0 0 0 0 0 0 0 0 0
0 0 0 0 0 0 0 0 0 0 0 0 0 0 0 0 0 1 2 3 3 3 2 1 0 0 0 0 0 0 0 0 0 0 0 0 0 0 0 0 0 0 0
0 0 0 0 0 0 0 0 0 0 0 0 0 0 0 0 0 0 1 2 3 3 2 2 1 0 0 0 0 0 0 0 0 0 0 0 0 0 0 0 0 0 0
0 0 0 0 0 0 0 0 0 0 0 0 0 0 0 0 0 0 0 1 2 3 3 2 1 1 1 0 0 0 0 0 0 0 0 0 0 0 0 0 0 0 0
0 0 0 0 0 0 0 0 0 0 0 0 0 0 0 0 0 0 0 0 1 2 3 3 3 2 2 1 0 0 0 0 0 0 0 0 0 0 0 0 0 0 0
0 0 0 0 0 0 0 0 0 0 0 0 0 0 0 0 0 0 0 0 0 1 2 3 3 3 3 2 1 0 0 0 0 0 0 0 0 0 0 0 0 0 0
0 0 0 0 0 0 0 0 0 0 0 0 0 0 0 0 0 0 0 0 0 0 1 1 2 3 3 2 1 0 0 0 0 0 0 0 0 0 0 0 0 0 0
0 0 0 0 0 0 0 0 0 0 0 0 0 0 0 0 0 0 0 0 0 0 0 0 1 2 2 2 1 0 0 0 0 0 0 0 0 0 0 0 0 0 0
0 0 0 0 0 0 0 0 0 0 0 0 0 0 0 0 0 0 0 0 0 0 0 0 0 1 1 1 0 0 0 0 0 0 0 0 0 0 0 0 0 0 0
0 0 0 0 0 0 0 0 0 0 0 0 0 0 0 0 0 0 0 0 0 0 0 0 0 0 0 0 0 0 0 0 0 0 0 0 0 0 0 0 0 0 0

GEFSMA_con_probscp_078.txt.gz
Probability
72 70 70 66 58 50 47 40 29 19 11 5 2 1 2 4 4 5 11 16 13 7 3 2 2 2 4 5 8 12 12 10 7 4 1 0 1 1 0 0 0 0 0
67 68 67 64 58 53 48 40 31 23 15 8 3 1 3 6 6 5 6 10 11 8 5 5 5 6 7 7 10 15 16 13 11 8 4 2 2 2 1 0 0 0 0
59 62 62 61 58 54 50 43 33 26 20 12 6 4 5 6 6 3 3 6 9 8 6 7 9 10 10 11 14 20 23 20 17 16 13 9 6 3 1 0 0 0 0
52 54 56 58 58 56 53 45 34 26 21 15 9 7 5 5 4 1 1 4 6 6 6 7 9 10 11 13 17 25 31 29 26 26 24 18 12 8 5 2 1 0 0
44 46 48 50 51 53 52 45 34 27 22 17 11 7 5 4 3 1 1 1 3 4 5 7 8 8 10 14 18 24 31 33 31 30 28 24 18 13 9 5 3 1 0
32 34 36 36 37 41 43 41 35 29 24 19 12 7 4 4 4 3 1 0 1 2 4 6 7 8 10 14 15 18 23 27 28 29 31 30 24 17 11 8 5 3 1
22 24 24 24 26 29 32 35 36 29 22 19 14 8 5 4 4 3 1 0 0 1 1 4 7 9 10 10 9 10 13 17 22 27 32 34 29 22 15 11 9 5 2
14 16 18 20 23 24 24 29 32 26 19 18 15 9 5 3 3 2 1 0 0 0 0 2 5 7 8 8 6 5 7 11 17 23 28 30 28 24 21 17 13 9 6
10 11 14 19 24 25 24 27 28 24 19 18 17 12 6 4 3 3 1 1 1 0 0 1 3 4 4 6 5 3 4 8 12 16 19 21 20 20 20 21 18 14 11
9 9 11 17 22 24 27 27 26 24 23 21 19 14 9 5 4 3 2 2 2 1 1 1 1 1 2 3 4 3 3 4 6 10 11 12 13 14 16 19 20 19 17
8 8 9 12 16 20 24 26 27 28 27 25 21 18 13 9 5 3 2 3 3 3 3 1 0 0 0 1 2 2 1 1 2 3 5 8 10 12 13 16 19 20 20
5 5 6 7 9 12 15 21 25 28 28 28 26 24 20 14 8 5 3 3 3 3 3 2 0 0 0 1 1 1 0 0 0 0 2 4 8 10 11 13 15 17 17
2 2 3 3 4 6 9 14 19 21 25 29 30 31 28 22 17 13 9 5 3 1 1 1 1 0 1 1 2 1 0 0 0 0 0 2 4 6 7 8 11 12 12
1 1 1 1 1 2 4 7 12 15 20 26 28 32 36 33 31 27 20 13 7 3 1 1 1 1 1 2 1 2 1 1 0 0 0 1 2 3 2 3 6 8 7
1 0 0 0 0 0 0 3 7 10 14 19 22 29 38 41 40 38 33 25 17 9 5 5 5 3 2 1 2 4 5 2 0 0 0 1 1 1 0 1 2 2 2
0 0 0 0 0 0 0 1 3 5 7 11 15 21 28 35 40 42 42 38 30 19 14 16 17 12 6 3 4 6 6 2 0 0 0 0 0 0 0 0 0 0 0
1 1 0 0 0 0 0 0 1 1 2 5 9 12 16 24 31 36 41 45 42 32 25 28 30 23 13 6 6 7 5 2 0 0 0 0 0 0 0 0 0 0 0
2 1 1 0 0 0 0 0 0 0 1 2 4 6 10 14 20 26 33 40 44 39 34 36 37 30 18 10 8 7 4 2 0 0 0 0 0 0 0 0 0 0 0
1 1 1 0 0 0 0 0 0 0 0 1 1 4 6 9 13 19 25 31 35 37 41 42 39 33 23 15 9 5 3 2 0 0 0 0 0 0 0 0 0 0 0
1 1 1 1 0 0 0 0 0 0 0 0 0 1 3 5 8 12 18 24 28 34 40 42 39 33 25 15 9 3 1 1 1 0 0 0 0 0 0 0 0 0 0
2 1 1 1 0 0 0 0 0 0 0 0 0 0 1 2 3 5 9 15 22 28 34 38 38 33 25 15 9 4 2 2 1 0 0 0 0 0 0 0 0 0 0
4 3 2 1 0 0 0 0 0 0 0 0 0 0 0 0 1 1 2 5 10 16 24 32 37 35 28 20 13 8 4 3 1 0 0 0 0 0 0 0 0 0 0
6 5 3 1 0 0 0 0 0 0 0 0 0 0 0 0 0 0 0 0 2 5 11 21 30 34 32 27 22 14 8 4 2 1 0 0 0 0 0 0 0 0 0
5 5 3 0 0 0 0 0 0 0 0 0 0 0 0 0 0 0 0 1 3 2 2 7 16 22 23 26 27 21 13 9 5 1 0 0 0 0 0 0 0 0 0
3 3 1 0 0 0 0 0 0 0 0 0 0 0 0 0 0 0 0 1 4 5 2 1 4 7 8 13 19 21 16 11 5 1 0 0 0 0 0 0 0 0 0
1 1 0 0 0 0 0 0 0 0 0 0 0 0 0 0 0 0 0 1 4 6 2 0 0 0 0 3 10 16 15 9 3 0 0 0 0 0 0 0 0 0 0

GEFSMA_con_probscp_084.txt.gz
Probability
89 87 86 84 82 81 80 75 68 65 63 58 50 40 29 19 14 19 33 49 58 62 60 52 39 25 14 9 6 4 5 6 4 1 1 2 2 1 0 0 0 0 0
86 85 84 84 83 82 80 76 70 65 62 58 51 42 32 24 20 23 34 48 57 59 56 48 35 22 13 9 6 5 7 10 8 3 1 2 1 0 0 0 0 0 0
83 83 83 83 83 80 75 73 70 65 59 55 49 41 35 31 29 29 35 45 50 49 43 36 27 19 12 7 6 5 8 12 12 7 3 1 0 0 0 0 0 0 0
80 80 80 79 78 73 67 65 64 59 52 47 43 35 32 34 32 29 29 34 39 38 32 25 20 16 10 7 6 6 8 13 14 11 5 1 0 0 0 0 0 0 0
73 73 71 71 67 61 55 51 50 47 42 37 33 27 26 28 28 25 23 25 30 32 29 22 17 12 8 8 9 8 10 14 17 15 10 5 1 0 0 0 0 0 0
62 61 60 58 53 46 42 37 34 33 32 30 24 21 20 23 26 27 24 23 25 26 25 23 19 12 7 8 9 9 11 16 21 21 16 11 6 3 2 1 1 2 1
49 50 49 46 41 36 33 30 26 23 24 24 22 19 17 19 24 27 24 21 20 18 19 24 26 19 11 6 6 9 13 18 23 23 19 15 11 9 7 5 3 2 2
39 39 40 37 33 30 28 26 23 20 18 19 20 18 15 16 20 21 21 19 17 17 18 23 28 25 17 9 7 9 13 17 20 20 19 17 14 12 10 8 5 2 1
32 31 30 28 27 26 23 21 20 18 16 16 17 17 16 17 18 18 18 17 16 19 18 18 24 27 21 14 9 8 10 12 14 14 15 16 14 11 10 9 8 4 1
26 23 21 21 23 23 21 19 18 18 17 16 17 18 20 21 19 16 15 15 16 18 16 13 17 23 20 15 11 7 5 6 7 8 9 10 10 8 8 8 9 8 6
22 18 17 19 20 21 21 20 21 21 21 21 21 23 24 23 19 16 13 12 14 15 15 13 14 17 17 14 12 7 4 3 2 2 3 4 5 5 4 4 5 8 10
21 17 15 17 17 16 17 19 20 21 22 22 23 26 28 27 24 22 18 14 14 16 19 21 21 20 18 15 11 5 3 2 0 0 0 1 2 2 1 1 2 4 8
20 17 15 15 15 12 12 14 15 16 17 19 19 22 26 29 29 30 29 24 22 23 26 29 30 27 24 21 13 4 1 1 0 0 0 0 0 1 0 0 1 2 3
17 17 15 14 14 11 9 10 11 11 13 15 13 15 21 26 29 33 36 34 30 28 28 32 36 38 37 30 15 4 1 0 0 0 0 0 0 0 0 0 1 2 2
17 18 17 16 14 11 9 9 8 8 11 11 9 9 14 20 25 31 35 36 33 27 26 33 43 50 49 33 13 5 4 1 0 0 0 0 0 0 0 0 0 1 1
23 22 21 20 16 12 9 8 7 7 7 5 3 4 6 11 18 24 29 32 32 28 27 35 48 57 53 33 14 9 7 2 0 0 0 0 0 0 0 0 0 0 0
29 26 24 22 18 13 10 8 6 5 4 2 1 1 1 4 10 15 21 26 30 30 28 32 44 54 53 38 22 13 6 1 0 0 0 0 0 0 0 0 0 0 0
26 25 22 19 15 13 11 9 6 3 2 1 0 0 0 1 3 8 12 18 24 28 28 31 38 45 47 41 29 16 7 2 0 0 0 0 0 0 0 0 0 0 0
16 17 18 15 11 10 9 8 6 4 2 0 0 0 0 0 1 3 6 10 15 21 27 32 35 36 35 31 23 14 7 3 1 0 0 0 0 0 0 0 0 0 0
7 8 11 13 9 6 6 7 6 5 3 1 1 0 0 0 1 2 2 4 8 14 22 28 30 29 26 20 14 8 5 4 2 0 0 0 0 0 0 0 0 0 0
3 5 8 8 6 3 3 5 5 4 4 4 3 1 0 0 0 0 0 1 4 9 14 20 23 22 19 15 10 6 3 3 2 1 0 0 0 0 0 0 0 0 0
1 3 6 6 4 2 2 2 3 3 4 6 5 3 1 0 0 0 0 0 1 3 6 10 13 13 12 11 9 6 3 3 3 2 1 1 1 0 0 0 0 0 0
0 1 3 3 3 2 1 0 1 1 3 5 6 4 1 0 0 0 0 0 0 0 1 3 4 5 5 7 7 5 4 5 4 3 2 1 0 0 0 0 0 0 0
0 0 1 1 1 1 0 0 0 0 1 3 4 3 1 0 0 0 0 0 0 0 0 1 1 1 2 3 4 4 5 6 6 3 1 0 0 0 0 0 0 0 0
0 0 0 0 0 0 0 0 0 0 0 1 2 1 0 0 0 0 0 0 0 0 0 0 0 0 0 1 1 2 4 5 5 3 1 0 0 0 0 0 0 0 0
0 0 0 0 0 0 0 0 0 0 0 1 2 1 0 0 0 0 0 0 0 0 0 0 0 0 0 0 0 1 2 2 2 2 1 0 0 0 0 0 0 0 0

GEFSMA_con_probscp_090.txt.gz
Probability
25 24 21 21 29 42 51 53 47 37 31 27 20 11 6 4 3 1 1 4 11 20 32 40 42 34 24 19 16 12 8 4 2 0 0 0 0 0 0 0 0 0 0
35 31 26 23 27 35 42 46 43 34 27 23 19 13 10 10 7 4 1 3 9 17 26 33 35 32 24 20 18 15 11 6 2 1 0 0 0 0 0 0 0 0 0
44 38 30 26 27 29 31 34 34 29 23 19 17 16 16 16 14 8 2 3 6 11 17 25 29 29 25 20 18 16 14 9 4 2 1 1 0 0 0 0 0 0 0
45 39 31 28 28 29 27 26 25 24 20 17 16 16 15 16 15 10 5 4 7 8 11 17 23 25 23 17 14 15 15 12 9 5 2 2 1 0 0 0 0 0 0
39 33 28 25 26 27 25 22 21 19 17 15 13 12 11 11 11 10 8 7 8 8 9 11 16 19 16 11 11 14 14 12 12 9 5 3 2 1 0 0 0 0 0
27 25 20 17 18 20 19 16 14 14 14 13 9 8 8 9 9 9 10 10 9 8 7 8 11 11 9 8 9 10 11 11 11 11 8 5 3 1 0 0 0 0 0
15 14 11 9 10 11 11 9 8 8 9 8 6 5 5 5 6 8 9 10 10 8 6 6 8 8 6 6 6 7 8 10 10 10 9 7 5 2 0 0 0 0 0
9 8 7 5 4 5 5 4 4 4 4 4 4 3 2 2 3 4 6 8 8 7 5 5 7 7 6 5 3 4 6 8 10 10 10 9 7 4 1 0 0 0 0
7 6 4 3 2 1 1 1 1 1 2 2 2 1 0 0 1 1 3 5 6 5 3 4 6 7 7 5 2 1 3 5 8 10 10 9 8 5 2 1 1 1 0
4 3 2 1 1 0 0 0 0 0 1 1 1 0 0 0 0 0 1 2 3 2 1 2 4 7 7 5 2 1 1 2 4 7 8 7 7 6 4 3 2 1 0
1 1 1 0 0 0 0 0 0 0 0 0 0 0 0 0 0 0 0 1 1 1 0 1 3 6 7 6 3 1 0 0 1 2 3 4 4 5 4 3 2 1 0
1 1 2 1 0 0 0 0 0 0 0 0 0 0 0 0 0 0 0 0 0 0 0 0 2 4 6 5 3 1 0 0 0 0 0 1 1 2 1 1 1 0 0
2 2 3 2 0 0 0 0 0 0 0 0 0 0 0 0 0 0 0 0 0 0 0 0 1 3 4 4 2 0 0 0 0 0 0 0 0 0 0 0 0 0 0
1 2 2 1 0 1 1 0 0 0 0 0 0 0 0 0 0 0 0 0 0 0 0 0 0 2 3 3 2 0 0 0 0 0 0 0 0 0 0 0 0 0 0
0 1 1 0 0 1 1 0 0 0 0 0 0 0 0 0 0 0 0 0 0 0 0 0 0 1 2 3 1 0 0 0 0 0 0 0 0 0 0 0 0 0 0
0 0 0 0 0 1 1 0 0 0 0 0 0 0 0 0 0 0 0 0 0 0 0 0 0 1 2 2 1 0 0 0 0 0 0 0 0 0 0 0 0 0 0
0 0 0 0 0 0 0 0 0 0 0 0 0 0 0 0 0 0 0 0 0 0 0 0 1 2 2 1 0 0 0 0 0 0 0 0 0 0 0 0 0 0 0
0 0 0 0 0 0 0 0 0 0 0 0 0 0 0 0 0 0 0 0 0 0 0 1 1 1 1 0 0 0 0 0 0 0 0 0 0 0 0 0 0 0 0
0 0 0 0 0 0 0 0 0 0 0 0 0 0 0 0 0 0 0 0 0 0 0 1 2 1 0 0 0 0 0 0 0 0 0 0 0 0 0 0 0 0 0
0 0 0 0 0 0 0 0 0 0 0 0 0 0 0 0 0 0 0 0 0 0 0 1 2 1 0 0 0 0 0 0 0 0 0 0 0 0 0 0 0 0 0
0 0 0 0 0 0 0 0 0 0 0 0 0 0 0 0 0 0 0 0 0 0 1 2 2 1 0 0 0 0 0 0 0 0 0 0 0 0 0 0 0 0 0
0 0 0 0 0 0 0 0 0 0 0 0 0 0 0 0 0 0 0 0 0 0 1 2 2 1 0 0 0 0 0 0 0 0 0 0 0 0 0 0 0 0 0
0 0 0 0 0 0 0 0 0 0 0 0 0 0 0 0 0 0 0 0 0 0 1 1 1 0 0 0 0 0 0 0 0 0 0 0 0 0 0 0 0 0 0
0 0 0 0 0 0 0 0 0 0 0 0 0 0 0 0 0 0 0 0 0 0 0 0 0 0 0 0 0 0 0 0 0 0 0 0 0 0 0 0 0 0 0
0 0 0 0 0 0 0 0 0 0 0 0 0 0 0 0 0 0 0 0 0 0 0 0 0 0 0 0 0 0 0 0 0 0 0 0 0 0 0 0 0 0 0
0 0 0 0 0 0 0 0 0 0 0 0 0 0 0 0 0 0 0 0 0 0 0 0 0 0 0 0 0 0 0 0 0 0 0 0 0 0 0 0 0 0 0

GEFSMA_con_probscp_096.txt.gz
Probability
43 37 29 26 24 22 23 23 20 16 14 15 14 9 6 5 5 5 4 2 1 1 1 0 1 2 2 3 4 4 3 2 1 0 0 0 0 0 0 0 0 0 0
40 36 30 27 25 22 21 21 18 15 14 16 15 10 7 6 6 5 3 2 2 2 2 3 4 5 3 2 3 5 5 4 3 1 1 0 0 0 0 0 0 0 0
36 34 30 25 22 20 17 16 14 12 13 15 15 11 8 7 6 5 4 3 3 3 4 5 8 9 6 3 3 5 7 7 6 4 2 0 0 0 0 0 0 0 0
29 30 28 22 19 17 14 12 11 11 12 13 11 9 7 6 5 5 6 5 4 4 4 6 10 13 13 8 5 6 8 11 11 7 3 0 0 0 0 0 0 0 0
20 22 22 19 16 15 14 13 12 11 10 10 8 6 6 6 5 6 7 6 4 3 4 6 9 13 14 12 10 10 12 16 16 10 5 1 0 0 0 0 0 0 0
11 13 14 13 11 12 13 12 11 10 9 8 7 6 5 4 5 6 6 5 3 2 3 5 8 10 12 13 15 15 16 19 18 13 8 4 2 0 0 0 0 0 0
6 7 7 6 6 7 8 9 7 6 6 7 7 5 3 3 4 5 6 5 3 2 3 4 6 9 12 13 14 16 16 17 18 15 12 10 7 3 1 0 0 0 0
2 3 3 3 2 3 3 3 2 2 3 4 4 4 3 3 3 3 4 4 4 4 4 4 5 8 12 14 13 13 14 15 16 14 13 14 11 6 3 1 0 0 0
0 1 1 1 1 1 1 0 0 0 1 1 2 3 3 2 1 1 2 3 3 4 5 6 6 8 12 16 14 11 10 11 12 13 13 13 11 9 7 4 1 0 0
0 0 0 0 0 0 0 0 0 0 0 0 1 1 2 1 0 0 1 1 2 3 4 5 6 8 13 16 14 9 6 6 8 11 13 12 9 9 9 6 2 0 0
0 0 0 0 0 0 0 0 0 0 0 0 0 0 0 0 0 0 0 0 1 1 2 2 4 7 11 13 11 6 3 2 4 7 9 10 9 7 5 4 2 0 0
0 0 0 0 0 0 0 0 0 0 0 0 0 0 0 0 0 0 0 0 0 0 0 1 3 6 9 10 8 5 2 1 1 2 3 6 8 6 3 2 2 1 1
0 0 0 0 0 0 0 0 0 0 0 0 0 0 0 0 0 0 0 0 0 0 0 0 2 5 7 8 7 4 2 1 0 0 0 3 5 4 3 2 3 3 2
0 0 0 0 1 1 1 0 0 0 0 0 0 0 0 0 0 0 0 0 0 0 0 0 1 3 6 7 6 3 2 1 0 0 0 1 1 2 1 1 2 3 2
0 0 0 0 1 2 1 0 0 0 0 0 0 0 0 0 0 0 0 0 0 0 0 0 0 2 4 4 3 3 2 1 0 0 0 0 0 0 0 0 1 1 1
0 0 0 0 1 2 1 0 0 0 0 0 0 0 0 0 0 0 0 0 0 0 0 0 0 1 2 2 2 4 3 1 0 0 0 0 0 0 0 0 0 0 0
0 0 0 0 0 0 0 0 0 0 0 0 0 0 0 0 0 0 0 0 0 0 0 0 0 1 1 2 3 3 2 1 0 0 0 0 0 0 0 0 0 0 0
0 0 0 0 0 0 0 0 0 0 0 0 0 0 0 0 0 0 0 0 0 0 0 0 0 0 1 2 2 1 1 0 0 0 0 0 0 0 0 0 0 0 0
0 0 0 0 0 0 0 0 0 0 0 0 0 0 0 0 0 0 0 0 0 0 0 0 0 0 0 1 1 0 0 0 0 0 0 0 0 0 0 0 0 0 0
0 0 0 0 0 0 0 0 0 0 0 0 0 0 0 0 0 0 0 0 0 0 0 0 0 0 0 0 0 0 0 0 0 0 0 0 0 0 0 0 0 0 0
0 0 0 0 0 0 0 0 0 0 0 0 0 0 0 0 0 0 0 0 0 0 0 0 0 0 0 0 0 0 0 0 0 0 0 0 0 0 0 0 0 0 0
0 0 0 0 0 0 0 0 0 0 0 0 0 0 0 0 0 0 0 0 0 0 0 0 0 0 0 0 0 0 0 0 0 0 0 0 0 0 0 0 0 0 0
0 0 0 0 0 0 0 0 0 0 0 0 0 0 0 0 0 0 0 0 0 0 0 0 0 0 0 0 0 0 0 0 0 0 0 0 0 0 0 0 0 0 0
0 0 0 0 0 0 0 0 0 0 0 0 0 0 0 0 0 0 0 0 0 0 0 0 0 0 0 0 0 0 0 0 0 0 0 0 0 0 0 0 0 0 0
0 0 0 0 0 0 0 0 0 0 0 0 0 0 0 0 0 0 0 0 0 0 0 0 0 0 0 0 0 0 1 1 1 0 0 0 0 0 0 0 0 0 0
0 0 0 0 0 0 0 0 0 0 0 0 0 0 0 0 0 0 0 0 0 0 0 0 0 0 0 0 0 0 1 2 2 1 0 0 0 0 0 0 0 0 0

GEFSMA_con_probscp_102.txt.gz
Probability
62 64 65 63 58 56 55 54 51 45 39 32 24 19 17 12 7 6 10 16 13 5 1 0 1 2 2 2 3 5 4 2 1 1 0 0 0 0 0 0 0 0 0
55 56 59 59 55 53 53 52 49 46 41 33 24 20 19 15 10 8 10 14 13 6 1 1 3 5 5 4 4 6 7 6 4 3 1 0 0 0 0 0 0 0 0
46 47 49 49 47 45 47 47 45 44 42 35 26 24 25 20 14 11 12 15 13 8 2 1 5 10 11 8 6 8 12 13 12 9 5 2 1 0 0 0 0 0 0
35 38 40 39 37 36 38 39 39 38 38 34 29 26 24 20 13 10 11 15 17 14 9 7 10 15 19 17 14 15 17 19 17 15 11 6 3 1 0 0 0 0 0
25 29 32 32 30 31 32 32 31 32 31 29 25 21 18 15 12 9 8 12 17 17 16 18 20 21 25 29 29 28 27 25 22 19 15 11 7 4 1 0 0 0 0
18 21 25 25 25 27 28 26 25 25 25 23 19 15 12 12 13 14 12 11 14 14 16 25 32 32 33 37 39 41 38 34 31 27 23 18 14 9 4 1 0 0 0
10 13 16 17 18 19 20 21 21 20 20 20 18 14 10 9 12 16 17 13 11 11 13 24 36 44 45 41 41 45 46 45 42 38 33 29 24 16 8 2 0 0 0
6 8 9 9 10 12 13 16 18 17 17 19 20 16 10 6 7 11 14 13 13 14 14 19 31 43 49 48 43 43 47 51 51 47 41 36 31 23 12 5 1 0 0
6 7 7 6 6 7 8 11 13 11 12 15 17 16 10 6 5 6 6 9 13 16 15 15 21 31 41 51 50 42 41 47 50 49 46 41 36 27 17 8 3 1 0
7 6 6 5 4 3 4 6 6 5 7 10 12 11 9 7 6 3 2 3 8 11 12 13 16 21 30 44 52 42 33 34 39 46 47 45 41 33 23 13 6 2 1
4 4 4 6 6 4 3 3 3 3 4 6 7 7 7 7 5 3 1 1 3 5 7 11 17 21 25 36 42 34 23 22 27 36 43 44 43 37 27 17 10 6 4
3 2 3 6 7 7 5 3 3 3 4 5 6 7 6 5 4 2 1 1 1 2 4 10 17 22 25 30 30 22 14 12 14 21 29 33 35 33 24 16 12 9 6
3 2 2 4 6 6 5 4 5 4 3 4 6 8 7 5 3 1 0 1 1 1 2 6 12 18 23 28 25 15 8 6 4 8 14 18 22 22 16 12 12 11 8
1 1 1 2 3 3 3 4 5 5 4 4 5 7 7 6 3 2 1 1 1 2 2 3 6 12 21 27 24 15 10 5 1 1 4 7 10 11 9 9 11 10 8
0 0 0 1 2 2 3 3 4 5 5 4 5 6 7 6 5 3 3 2 1 1 1 2 3 6 14 20 19 20 17 7 0 0 0 1 3 4 4 5 5 4 3
0 0 0 0 1 1 2 3 3 4 4 5 6 6 6 5 5 4 4 3 2 1 1 2 3 4 7 10 13 19 19 11 4 1 0 0 0 1 1 1 1 0 0
0 0 0 0 0 0 1 1 2 2 3 3 4 4 3 3 4 4 3 3 3 3 3 4 4 4 6 9 12 17 19 15 9 3 0 0 0 0 0 0 0 0 0
0 0 0 0 0 0 0 0 1 1 1 1 2 2 1 2 3 3 3 3 4 5 5 6 6 6 9 11 14 18 20 19 12 4 0 0 0 0 0 0 0 0 0
0 0 0 0 0 0 0 0 0 0 0 0 1 1 1 2 3 3 2 3 4 5 6 8 8 8 8 9 11 14 20 21 13 5 1 0 0 0 0 0 0 0 0
0 0 0 0 0 0 0 0 0 0 0 0 0 0 0 2 3 2 0 1 2 4 8 9 8 7 8 8 8 9 14 18 15 8 4 1 0 0 0 0 0 0 0
0 0 0 0 0 0 0 0 0 0 0 0 0 0 0 0 1 0 0 0 1 3 7 8 6 5 6 7 7 6 7 11 12 10 7 4 2 1 1 0 0 0 0
0 0 0 0 0 0 0 0 0 0 0 0 0 0 0 0 0 0 0 0 1 2 4 4 4 2 3 4 5 5 4 5 6 8 9 8 5 4 2 1 0 0 0
0 0 0 0 0 0 0 0 0 0 0 0 0 0 0 0 0 1 0 0 0 1 1 2 2 1 2 3 4 4 3 3 4 7 9 9 8 6 4 1 0 0 0
0 0 0 0 0 0 0 0 0 0 0 0 0 0 0 0 0 0 0 0 0 0 0 1 1 1 2 3 3 3 2 3 5 6 8 8 8 7 5 2 1 0 0
0 0 0 0 0 0 0 0 0 0 0 0 0 0 0 0 0 0 0 0 0 0 0 0 0 0 1 1 2 2 2 2 3 5 6 6 7 6 4 2 1 0 0
0 0 0 0 0 0 0 0 0 0 0 0 0 0 0 0 0 0 0 0 0 0 0 0 0 0 0 0 1 2 2 1 1 3 4 5 5 4 3 1 0 0 0